sat.trackr.live / text

‹ back to catalog

EAGLET-I

NORAD 43790 · 2018-099AJ

PAYLOAD ACTIVE UNKNOWN

§ Identity

Operator
Country
IT
Launch date
2018-12-03
Launch site
AFWTR
Launch vehicle
Mass (kg)
RCS (m²)

External: N2YO · Heavens-Above · Gunter

§ Orbital elements

Epoch: 2026-05-25T02:25:56.067168Z

Period
95.19 min
Inclination
97.4250°
Eccentricity
0.0012686
Mean motion
15.12730541 rev/d
Perigee alt
519.1 km
Apogee alt
536.6 km
Semi-major
6,906.0 km
B*
2.0632e-4
RAAN
195.3831°
Arg perigee
69.7087°
Mean anomaly
290.5507°
Rev number
40,884

§ Raw data

EAGLET-I1 43790U 18099AJ  26145.10134337  .00003557  00000+0  20632-3 0  99952 43790  97.4250 195.3831 0012686  69.7087 290.5507 15.12730541408843

JSON: /api/v1/satellites/43790 · /tle

For live sub-satellite position, see the globe view (requires WebGL).

§ Visibility from observer

Set your observer location to see the next 7 days of passes ≥ 10°. The values pass through the URL so the page stays shareable.

No JS? Fill the form by hand. The geolocation button needs JavaScript.

§ Radio — SatNOGS DB

ModeDescriptionDownlinkUplink
GMSK AIS Downlink 435.800 MHz
BPSK BPSK1k2 AX.25 TLM 435.200 MHz

2 transmitters · refreshed weekly from db.satnogs.org